TimeAKST,TemperatureF,Dew PointF,Humidity,Sea Level PressureIn,VisibilityMPH,Wind Direction,Wind SpeedMPH,Gust SpeedMPH,PrecipitationIn,Events,Conditions,WindDirDegrees,DateUTC
12:56 AM,32.0,30.2,93,29.86,-9999.0,East,4.6,-,N/A,,Unknown,90,2012-12-09 09:56:00
1:16 AM,32.0,28.4,87,29.86,1.8,East,6.9,-,N/A,,Overcast,80,2012-12-09 10:16:00
1:36 AM,33.8,28.4,81,29.86,2.5,East,6.9,-,N/A,,Overcast,90,2012-12-09 10:36:00
1:56 AM,33.8,30.2,87,29.86,2.5,ENE,8.1,16.1,N/A,,Overcast,60,2012-12-09 10:56:00
2:16 AM,33.8,30.2,87,29.85,3.0,East,9.2,-,N/A,,Overcast,80,2012-12-09 11:16:00
2:36 AM,33.8,28.4,81,29.85,3.0,East,5.8,-,N/A,,Overcast,80,2012-12-09 11:36:00
2:56 AM,33.8,28.4,81,29.84,3.0,Calm,Calm,-,N/A,,Overcast,0,2012-12-09 11:56:00
3:16 AM,33.8,30.2,87,29.85,3.0,Calm,Calm,-,N/A,,Overcast,0,2012-12-09 12:16:00
3:36 AM,33.8,30.2,87,29.85,2.5,West,3.5,-,N/A,,Overcast,260,2012-12-09 12:36:00
3:56 AM,33.8,30.2,87,29.85,3.0,Calm,Calm,-,N/A,,Overcast,0,2012-12-09 12:56:00
4:16 AM,33.8,30.2,87,29.84,5.0,Calm,Calm,-,N/A,,Mostly Cloudy,0,2012-12-09 13:16:00
4:36 AM,33.8,30.2,87,29.85,5.0,Calm,Calm,-,N/A,,Overcast,0,2012-12-09 13:36:00
4:56 AM,33.8,30.2,87,29.87,4.0,SW,4.6,-,N/A,,Overcast,230,2012-12-09 13:56:00
5:16 AM,33.8,30.2,87,29.86,5.0,WSW,3.5,-,N/A,,Overcast,240,2012-12-09 14:16:00
5:36 AM,33.8,30.2,87,29.86,5.0,SW,3.5,-,N/A,,Overcast,230,2012-12-09 14:36:00
5:56 AM,33.8,30.2,87,29.86,4.0,Calm,Calm,-,N/A,,Overcast,0,2012-12-09 14:56:00
6:16 AM,33.8,30.2,87,29.88,4.0,WSW,3.5,-,N/A,,Overcast,240,2012-12-09 15:16:00
6:36 AM,33.8,30.2,87,29.89,4.0,Calm,Calm,-,N/A,,Overcast,0,2012-12-09 15:36:00
6:56 AM,33.8,30.2,87,29.90,5.0,West,3.5,-,N/A,,Overcast,260,2012-12-09 15:56:00
7:16 AM,33.8,30.2,87,29.90,5.0,Calm,Calm,-,N/A,,Overcast,0,2012-12-09 16:16:00
7:36 AM,33.8,30.2,87,29.91,5.0,Calm,Calm,-,N/A,,Overcast,0,2012-12-09 16:36:00
7:56 AM,33.8,32.0,93,29.92,5.0,Calm,Calm,-,N/A,,Overcast,0,2012-12-09 16:56:00
8:16 AM,33.8,30.2,87,29.92,5.0,Calm,Calm,-,N/A,,Overcast,0,2012-12-09 17:16:00
8:36 AM,33.8,30.2,87,29.93,7.0,Calm,Calm,-,N/A,,Overcast,0,2012-12-09 17:36:00
8:56 AM,33.8,30.2,87,29.94,7.0,Calm,Calm,-,N/A,,Overcast,0,2012-12-09 17:56:00
9:16 AM,33.8,30.2,87,29.95,7.0,Calm,Calm,-,N/A,,Overcast,0,2012-12-09 18:16:00
9:36 AM,33.8,30.2,87,29.94,7.0,SW,3.5,-,N/A,,Overcast,220,2012-12-09 18:36:00
9:56 AM,33.8,32.0,93,29.95,7.0,Calm,Calm,-,N/A,,Overcast,0,2012-12-09 18:56:00
10:16 AM,33.8,30.2,87,29.96,7.0,NW,4.6,-,N/A,,Overcast,310,2012-12-09 19:16:00
10:36 AM,33.8,32.0,93,29.96,7.0,Calm,Calm,-,N/A,,Overcast,0,2012-12-09 19:36:00
10:56 AM,33.8,32.0,93,29.96,7.0,Calm,Calm,-,N/A,,Mostly Cloudy,0,2012-12-09 19:56:00
11:16 AM,33.8,32.0,93,29.96,7.0,NNE,3.5,-,N/A,,Mostly Cloudy,20,2012-12-09 20:16:00
11:36 AM,-9999,-9999,N/A,29.96,-9999.0,SW,4.6,-,N/A,,Unknown,220,2012-12-09 20:36:00
11:56 AM,33.8,32.0,93,29.96,7.0,Calm,Calm,-,N/A,,Mostly Cloudy,0,2012-12-09 20:56:00
12:16 PM,33.8,32.0,93,29.97,7.0,Calm,Calm,-,N/A,,Mostly Cloudy,0,2012-12-09 21:16:00
12:36 PM,33.8,32.0,93,29.96,7.0,Calm,Calm,-,N/A,,Mostly Cloudy,0,2012-12-09 21:36:00
12:56 PM,33.8,32.0,93,29.96,7.0,Calm,Calm,-,N/A,,Overcast,0,2012-12-09 21:56:00
1:16 PM,33.8,32.0,93,29.95,7.0,Calm,Calm,-,N/A,,Overcast,0,2012-12-09 22:16:00
1:36 PM,33.8,33.8,100,29.95,7.0,ENE,3.5,-,N/A,,Overcast,70,2012-12-09 22:36:00
1:56 PM,35.6,33.8,93,29.95,5.0,North,5.8,-,N/A,,Overcast,360,2012-12-09 22:56:00
2:16 PM,35.6,33.8,93,29.95,5.0,Calm,Calm,-,N/A,,Overcast,0,2012-12-09 23:16:00
2:36 PM,35.6,33.8,93,29.95,5.0,South,4.6,-,N/A,,Overcast,190,2012-12-09 23:36:00
2:56 PM,35.6,33.8,93,29.94,5.0,SSW,3.5,-,N/A,,Overcast,200,2012-12-09 23:56:00
3:16 PM,35.6,33.8,93,29.95,5.0,Calm,Calm,-,N/A,,Overcast,0,2012-12-10 00:16:00
3:36 PM,35.6,33.8,93,29.95,5.0,Calm,Calm,-,N/A,,Overcast,0,2012-12-10 00:36:00
3:56 PM,35.6,33.8,93,29.96,5.0,South,3.5,-,N/A,,Overcast,190,2012-12-10 00:56:00
4:16 PM,35.6,33.8,93,29.97,5.0,Calm,Calm,-,N/A,,Overcast,0,2012-12-10 01:16:00
4:36 PM,35.6,33.8,93,29.97,5.0,Calm,Calm,-,N/A,,Overcast,0,2012-12-10 01:36:00
4:56 PM,35.6,33.8,93,29.97,5.0,Calm,Calm,-,N/A,,Overcast,0,2012-12-10 01:56:00
5:16 PM,33.8,32.0,93,29.97,5.0,Calm,Calm,-,N/A,,Overcast,0,2012-12-10 02:16:00
5:36 PM,33.8,30.2,87,29.98,5.0,West,3.5,-,N/A,,Overcast,270,2012-12-10 02:36:00
5:56 PM,35.6,33.8,93,29.98,5.0,WSW,4.6,-,N/A,,Overcast,240,2012-12-10 02:56:00
6:16 PM,35.6,33.8,93,29.98,5.0,Calm,Calm,-,N/A,,Overcast,0,2012-12-10 03:16:00
6:36 PM,35.6,33.8,93,29.99,5.0,Calm,Calm,-,N/A,,Overcast,0,2012-12-10 03:36:00
6:56 PM,35.6,33.8,93,29.99,6.0,SSW,4.6,-,N/A,,Overcast,200,2012-12-10 03:56:00
7:16 PM,35.6,33.8,93,30.00,6.0,Calm,Calm,-,N/A,,Overcast,0,2012-12-10 04:16:00
7:36 PM,33.8,32.0,93,30.00,6.0,Calm,Calm,-,N/A,,Overcast,0,2012-12-10 04:36:00
7:56 PM,35.6,33.8,93,30.01,6.0,Calm,Calm,-,N/A,,Overcast,0,2012-12-10 04:56:00
8:16 PM,35.6,32.0,87,30.01,6.0,Calm,Calm,-,N/A,,Overcast,0,2012-12-10 05:16:00
8:36 PM,35.6,33.8,93,30.01,6.0,West,3.5,-,N/A,,Overcast,260,2012-12-10 05:36:00
8:56 PM,33.8,32.0,93,30.02,7.0,Calm,Calm,-,N/A,,Mostly Cloudy,0,2012-12-10 05:56:00
9:16 PM,33.8,32.0,93,30.03,7.0,East,3.5,-,N/A,,Mostly Cloudy,90,2012-12-10 06:16:00
9:36 PM,35.6,33.8,93,30.04,7.0,Calm,Calm,-,N/A,,Mostly Cloudy,0,2012-12-10 06:36:00
9:56 PM,35.6,33.8,93,30.04,7.0,Calm,Calm,-,N/A,,Mostly Cloudy,0,2012-12-10 06:56:00
10:16 PM,35.6,33.8,93,30.03,8.0,SSW,4.6,-,N/A,,Overcast,210,2012-12-10 07:16:00
10:36 PM,33.8,32.0,93,30.03,7.0,Calm,Calm,-,N/A,,Overcast,0,2012-12-10 07:36:00
10:56 PM,35.6,33.8,93,30.04,5.0,Calm,Calm,-,N/A,,Overcast,0,2012-12-10 07:56:00
11:16 PM,35.6,33.8,93,30.05,10.0,Calm,Calm,-,N/A,,Mostly Cloudy,0,2012-12-10 08:16:00
11:56 PM,33.8,30.2,87,30.05,7.0,SW,3.5,-,N/A,,Mostly Cloudy,230,2012-12-10 08:56:00